This is the latest recevied weather packets stored in our database for station/object EW5546. If no packets are shown the sender has not sent any weather packets the latest 10 day(s).
| Time | Temp. | Humidity | Pressure | Rain* | Wind** | Luminosity | Snow |
|---|---|---|---|---|---|---|---|
| 1777188020 | 8.33° C | 40% | 1014 hPa | 0 mm | - | - | - |
| 1777185637 | 7.78° C | 41% | 1014 hPa | 0 mm | - | - | - |
| 1777183816 | 7.22° C | 43% | 1013 hPa | 0 mm | - | - | - |
| 1777183232 | 7.22° C | 43% | 1013 hPa | 0 mm | - | - | - |
| 1777175431 | 6.11° C | 46% | 1009.6 hPa | 0 mm | - | - | - |
| 1777172423 | 6.67° C | 45% | 1007 hPa | 0 mm | - | - | - |
| 1777170024 | 7.22° C | 44% | 1006.5 hPa | 0 mm | - | - | - |
| 1777169439 | 7.22° C | 44% | 1005.9 hPa | 0 mm | - | - | - |
| 1777168824 | 7.78° C | 45% | 1005.9 hPa | 0 mm | - | - | - |
| 1777162819 | 8.89° C | 49% | 1002.9 hPa | 0 mm | - | - | - |
| 1777157416 | 9.44° C | 46% | 1003.3 hPa | 0 mm | - | - | - |
| 1777156231 | 10° C | 42% | 1003.9 hPa | 0 mm | - | - | - |
| 1777153819 | 12.22° C | 37% | 1002.9 hPa | 0 mm | - | - | - |
| 1777146048 | 14.44° C | 35% | 1002.9 hPa | 0 mm | - | - | - |
| 1777142432 | 15° C | 35% | 1003.9 hPa | 0 mm | - | - | - |
| 1777140640 | 15.56° C | 34% | 1003.9 hPa | 0 mm | - | - | - |
| 1777140022 | 15.56° C | 34% | 1003.9 hPa | 0 mm | - | - | - |
| 1777118434 | 17.22° C | 38% | 1005.9 hPa | 0 mm | - | - | - |
| 1777116031 | 17.22° C | 39% | 1005.9 hPa | 0 mm | - | - | - |
| 1777114829 | 17.22° C | 39% | 1005.9 hPa | 0 mm | - | - | - |
| 1777113027 | 17.22° C | 39% | 1005.9 hPa | 0 mm | - | - | - |
| 1777111224 | 17.22° C | 40% | 1005.9 hPa | 0 mm | - | - | - |
| 1777106443 | 15.56° C | 44% | 1007 hPa | 0 mm | - | - | - |
| 1777105840 | 15.56° C | 44% | 1007 hPa | 0 mm | - | - | - |
| 1777104620 | 15° C | 44% | 1007 hPa | 0 mm | - | - | - |
* Rain latest hour (hover to see other rain measurements)
** Current wind speed in m/s (hover to see current wind gust speed)